Flag for Switzerland Weather past 2 weeks in Lausanne, Vaud, Switzerland

Now
65 °F

Mild.


Feels Like: 65 °F
Forecast: 57 / 69 °F
Wind: 5 mph from West

Location: Aigle

Current Time: Jul 29, 2014 at 8:19:06 PM

Latest Report: Jul 29, 2014 at 7:00 PM


Visibility: N/A

Pressure: 29.82 "Hg

Humidity: 80%

Dew point: 59 °F

Location of LausanneLocation

Historic Weather in Lausanne — Graph

°F

Lausanne temperature yesterday

Maximum temperature yesterday: 72 °F (at 12:00 PM)
Minimum temperature yesterday: 59 °F (at 6:00 AM)
Average temperature yesterday: 65 °F

Past Weeks' High & Low Weather Summary

 TemperatureHumidityPressure
High85 °F (Jul 18, 6:00 PM)99% (Jul 22, 1:00 AM)30.19 "Hg (Jul 22, 1:00 AM)
Low55 °F (Jul 16, 4:00 AM)42% (Jul 19, 4:00 PM)29.79 "Hg (Jul 29, 3:00 PM)
Average66 °F81%29.97 "Hg
* Reported Jul 14 7:00 PM — Jul 29 7:00 PM, Lausanne, Weather by CustomWeather, © 2014

Note: Actual official high and low records may vary slightly from our data, if they occured in-between our weather recording intervals... More about our weather records

Advertising

Lausanne weather history for previous 24 hours

 ConditionsComfort  
Time TempWeatherWind HumidityBarometerVisibility
7:00 PM
Jul 29
65 °FMild.5 mph80%29.82 "HgN/A
6:00 PM65 °FMild.3 mph76%29.80 "HgN/A
5:00 PM65 °FDrizzle. Overcast.1 mph67%29.81 "Hg16 mi
4:00 PM66 °FMild.3 mph74%29.80 "HgN/A
3:00 PM67 °FMild.3 mph64%29.79 "HgN/A
2:00 PM66 °FOvercast.2 mph67%29.79 "Hg16 mi
1:00 PM66 °FMild.1 mph63%29.79 "HgN/A
12:00 PM65 °FMild.2 mph67%29.80 "HgN/A
11:00 AM63 °FOvercast.3 mph69%29.81 "Hg10 mi
10:00 AM63 °FMild.7 mph77%29.82 "HgN/A
9:00 AM58 °FCool.7 mph91%29.84 "HgN/A
8:00 AM56 °FRain. Overcast.9 mph87%29.84 "Hg4 mi
7:00 AM57 °FCool.10 mph88%29.83 "HgN/A
6:00 AM59 °FCool.2 mph97%29.83 "HgN/A
5:00 AM59 °FLight rain. Overcast.No wind98%29.83 "Hg5 mi
4:00 AM59 °FCool.1 mph98%29.84 "HgN/A
3:00 AM59 °FCool.2 mph98%29.85 "HgN/A
2:00 AM59 °FCool.1 mph95%29.86 "HgN/A
1:00 AM60 °FCool.3 mph94%29.87 "HgN/A
12:00 AM60 °FCool.5 mph96%29.88 "HgN/A
11:00 PM
Jul 28
61 °FCool.6 mph94%29.89 "HgN/A
10:00 PM61 °FCool.1 mph94%29.90 "HgN/A
9:00 PM61 °FCool.1 mph95%29.90 "HgN/A
8:00 PM62 °FRain. Overcast.1 mph95%29.89 "Hg6 mi
Weather by CustomWeather, © 2014

See weather overviewHow to use our weather pages